Notices

What's New in latest Release from April 7th, 2021:

- Updated Glossary, including Speed of Maximum Gust, and Total Hourly Precipitation

- Updated national and regional climate services offices contacts and prices information

- Addition of station inventory lists for 1981-2010, 1971-2000, and 1961-1990 Normals.

If you haven't already, please take our survey and provide feedback about our website: https://eccc.sondage-survey.ca/f/LanguageSelection.aspx?s=442ca660-fcf1-47c0-95a9-59707d6fd709

Hourly Data Report for November 20, 2019

MIRAMICHI RCS
NEW BRUNSWICK
Current Station Operator: ECCC - MSC

47°00'34.000" N
65°27'54.000" W
33.00 m
8100989
71744
ACQ

Download Data

Hourly Data (November 2019)
Hourly Data Report for November 20, 2019
TIME
LST
Temp Definition
°C
Dew Point Definition
°C
Rel Hum Definition
%
Precip. Amount Definition
mm

Wind Dir Definition
10's deg

Wind Spd Definition
km/h
Visibility Definition
km
Stn Press Definition
kPa
Hmdx Definition


Wind Chill Definition


Weather Definition


00:00 0.0 -0.7 95 0.2 34 4   100.77   -1 LegendNANA
01:00 0.0 -0.8 95 0.0 32 3   100.74   -1 LegendNANA
02:00 -0.1 -0.8 95 0.0   0   100.80     LegendNANA
03:00 -0.6 -1.1 96 0.0 13 3   100.86   -2 LegendNANA
04:00 -0.6 -1.0 97 0.0   0   100.93     LegendNANA
05:00 -0.4 -0.9 97 0.0 25 2   100.96   -1 LegendNANA
06:00 -0.3 -0.8 97 0.0 35 4   100.91   -2 LegendNANA
07:00 -0.7 -1.4 95 0.0 35 4   100.97   -2 LegendNANA
08:00 -0.8 -1.5 95 0.0 1 6   101.03   -3 LegendNANA
09:00 -0.2 -1.6 90 0.6 1 8   101.02   -3 LegendNANA
10:00 0.3 -1.7 87 0.7 2 8   101.06     LegendNANA
11:00 0.5 -1.4 87 0.0 1 6   101.04     LegendNANA
12:00 0.9 -1.8 82 0.0 3 14   100.95     LegendNANA
13:00 1.4 -1.4 81 0.0 4 15   100.97     LegendNANA
14:00 1.1 -0.7 87 0.0 3 12   101.02     LegendNANA
15:00 0.6 -0.3 94 0.0 3 11   101.01     LegendNANA
16:00 0.7 -0.4 92 0.0 3 13   101.06     LegendNANA
17:00 0.4 -1.1 90 0.0 3 17   101.06     LegendNANA
18:00 0.3 -1.2 89 0.0 3 16   101.08     LegendNANA
19:00 0.1 -1.4 89 0.0 3 15   101.06     LegendNANA
20:00 0.1 -1.4 89 0.0 2 14   101.06     LegendNANA
21:00 0.0 -1.2 92 0.0 2 13   101.06   -4 LegendNANA
22:00 0.1 -1.0 92 0.0 2 11   101.06     LegendNANA
23:00 0.3 -0.9 92 0.0 2 13   101.04     LegendNANA

Notes on Data Quality.

Legend

  • E = Estimated
  • M = Missing
  • NA = Not Available*
  • [empty] = Indicates an unobserved value
Date modified: